Hourly Data Report for January 05, 2005

SHERBROOKE A
QUEBEC

45°26'00.000" N
71°41'00.000" W
241.40 m
7028124
71610
YSC

Download Data

Hourly Data (January 2005)
Hourly Data Report for January 5, 2005
TIME
LST
Temp Definition
°C
Dew Point Definition
°C
Rel Hum Definition
%
Precip. Amount Definition
mm

Wind Dir Definition
10's deg

Wind Spd Definition
km/h
Visibility Definition
km
Stn Press Definition
kPa
Hmdx Definition


Wind Chill Definition


Weather Definition


00:00 -7.3 -10.2 80   31 17 2.3 99.34   -14 Snow
01:00 -8.1 -10.7 82   30 9 3.9 99.33   -13 Snow
02:00 -8.1 -10.6 82   29 9 6.4 99.35   -13 Snow
03:00 -8.3 -10.8 82   28 19 15.0 99.34   -16 Snow
04:00 -8.4 -11.0 81   27 7 15.0 99.26   -12  
05:00 -8.4 -10.9 82   29 9 15.0 99.28   -13 Snow
06:00 -8.8 -12.2 76   30 13 15.0 99.35   -15  
07:00 -10.9 -14.4 75   35 13 9.7 99.41   -17 Snow
08:00 -12.6 -16.6 72   32 11 24.1 99.47   -19 Mostly Cloudy
09:00 -13.4 -17.6 71   34 11 24.1 99.55   -20 Mostly Cloudy
10:00 -13.5 -17.9 69   35 13 24.1 99.65   -20 Mainly Clear
11:00 -13.2 -18.5 64   31 13 24.1 99.55   -20 Mainly Clear
12:00 -12.7 -18.0 64   27 13 24.1 99.50   -20 Mainly Clear
13:00 -12.8 -18.9 60   29 13 24.1 99.48   -20 Mainly Clear
14:00 -12.8 -19.0 60   29 11 24.1 99.45   -19 Mainly Clear
15:00 -12.8 -19.3 58   29 13 24.1 99.48   -20 Mainly Clear
16:00 -13.6 -18.6 66   28 7 24.1 99.51   -18 Mainly Clear
17:00 -14.6 -19.4 67   31 6 24.1 99.53   -19 Mainly Clear
18:00 -15.4 -19.3 72   30 4 15.0 99.53   -18  
19:00 -16.8 -19.3 81   11 4 15.0 99.57   -20  
20:00 -16.7 -19.3 80     0 15.0 99.53      
21:00 -17.7 -19.4 87   13 4 15.0 99.47   -21  
22:00 -18.6 -20.4 86     0 15.0 99.51      
23:00 -18.5 -20.3 86     0 15.0 99.49      

Notes on Data Quality.

Legend

  • E = Estimated
  • M = Missing
  • NA = Not Available*
  • [empty] = Indicates an unobserved value
Date modified: